Flag for New Zealand Weather past 2 weeks in Auckland, New Zealand

Now
52 °F

Sprinkles. Broken clouds.


Feels Like: 49 °F
Forecast: 51 / 59 °F
Wind: 9 mph from North

Location: Auckland Airport

Current Time: Aug 2, 2015 at 8:36:36 AM

Latest Report: Aug 2, 2015 at 8:00 AM


Visibility: N/A

Pressure: 30.21 "Hg

Humidity: 100%

Dew point: 52 °F

Location of AucklandLocation

Historic Weather in Auckland — Graph

°F

Auckland temperature yesterday

Maximum temperature yesterday: 61 °F (at 2:30 PM)
Minimum temperature yesterday: 48 °F (at 1:00 AM)
Average temperature yesterday: 53 °F

Past Weeks' High & Low Weather Summary

 TemperatureHumidityPressure
High61 °F (Jul 18, 3:00 PM)100% (Jul 18, 10:30 AM)30.60 "Hg (Jul 18, 10:30 AM)
Low39 °F (Jul 21, 8:00 AM)51% (Jul 30, 12:00 PM)29.18 "Hg (Jul 18, 6:00 PM)
Average51 °F85%30.14 "Hg
* Reported Jul 18 7:00 AM — Aug 2 7:30 AM, Auckland, Weather by CustomWeather, © 2015

Note: Actual official high and low records may vary slightly from our data, if they occured in-between our weather recording intervals... More about our weather records

Advertising

Auckland weather history for previous 24 hours

 ConditionsComfort  
Time TempWeatherWind HumidityBarometerVisibility
7:30 AM
Sun, Aug 2
52 °FBroken clouds.8 mph94%30.21 "HgN/A
7:00 AM52 °FSprinkles. Broken clouds.9 mph94%30.21 "HgN/A
6:30 AM52 °FSprinkles. Mostly cloudy.9 mph88%30.21 "HgN/A
6:00 AM52 °FPassing clouds.8 mph88%30.21 "HgN/A
5:30 AM50 °FPassing clouds.6 mph88%30.21 "HgN/A
5:00 AM50 °FPassing clouds.6 mph88%30.21 "HgN/A
4:30 AM50 °FMostly cloudy.7 mph88%30.21 "HgN/A
4:00 AM50 °FPassing clouds.6 mph88%30.21 "HgN/A
3:30 AM50 °FPassing clouds.5 mph88%30.21 "HgN/A
3:00 AM52 °FMostly cloudy.5 mph82%30.24 "HgN/A
2:30 AM52 °FMostly cloudy.5 mph88%30.24 "HgN/A
2:00 AM50 °FPassing clouds.2 mph94%30.24 "HgN/A
1:30 AM50 °FPassing clouds.3 mph88%30.24 "HgN/A
1:00 AM50 °FPartly cloudy.3 mph88%30.24 "HgN/A
12:30 AM50 °FPassing clouds.5 mph88%30.24 "HgN/A
12:00 AM50 °FPassing clouds.6 mph88%30.24 "HgN/A
11:30 PM
Sat, Aug 1
52 °FCool.7 mph88%30.24 "HgN/A
11:00 PM52 °FCool.9 mph82%30.24 "HgN/A
10:30 PM52 °FCool.9 mph82%30.24 "HgN/A
10:00 PM52 °FPassing clouds.6 mph82%30.24 "HgN/A
9:30 PM52 °FPassing clouds.5 mph88%30.24 "HgN/A
9:00 PM52 °FPassing clouds.3 mph88%30.24 "HgN/A
8:30 PM52 °FPassing clouds.5 mph88%30.24 "HgN/A
8:00 PM52 °FCool.5 mph88%30.21 "HgN/A
7:30 PM54 °FCool.5 mph82%30.21 "HgN/A
7:00 PM54 °FCool.5 mph82%30.21 "HgN/A
6:30 PM55 °FCool.6 mph77%30.21 "HgN/A
6:00 PM55 °FCool.6 mph77%30.21 "HgN/A
5:30 PM57 °FPassing clouds.7 mph72%30.21 "HgN/A
4:30 PM57 °FCool.8 mph77%30.21 "HgN/A
4:00 PM59 °FCool.13 mph68%30.21 "HgN/A
3:30 PM59 °FScattered clouds.15 mph68%30.21 "HgN/A
3:00 PM59 °FOvercast.13 mph63%30.21 "HgN/A
2:30 PM61 °FPartly sunny.12 mph59%30.21 "HgN/A
2:00 PM59 °FPartly sunny.8 mph63%30.18 "HgN/A
1:30 PM59 °FPartly sunny.7 mph63%30.21 "HgN/A
1:00 PM55 °FSprinkles. Mostly cloudy.15 mph82%30.21 "HgN/A
12:30 PM57 °FDrizzle. Broken clouds.10 mph72%30.21 "HgN/A
12:00 PM57 °FPassing clouds.8 mph72%30.24 "HgN/A
11:30 AM57 °FCool.10 mph77%30.24 "HgN/A
11:00 AM57 °FCool.13 mph77%30.24 "HgN/A
10:30 AM57 °FCool.10 mph77%30.24 "HgN/A
9:30 AM54 °FPartly sunny.9 mph82%30.24 "HgN/A
9:00 AM52 °FPartly sunny.9 mph88%30.24 "HgN/A
8:30 AM50 °FPartly sunny.9 mph94%30.24 "HgN/A
8:00 AM50 °FPartly sunny.10 mph88%30.24 "HgN/A
Weather by CustomWeather, © 2015

See weather overviewHow to use our weather pages